Location: Cronhütte
(48.9135°N, 9.6869°E)
Time: 17:37:31
(UTC+00:00)

FORMOSAT 3E - Pass Details

Date: 01 May 2025
Orbit: 742 x 834 km, 72.0° (Epoch: 13 May)

Event Time Altitude Azimuth Distance (km) Brightness Sun altitude
Rises 01:21:00 0° 316° (NW) 3,199 11.4 -20.4°
Reaches altitude 10° 01:24:52 10° 287° (WNW) 2,281 10.3 -20.1°
Enters shadow 01:25:37 11° 278° (W) 2,195 10.1 -20.0°
